Weather History for Sacramento / Mc Clellan, CA

Change the Weather History Date:

Friday, December 28, 2012

  Actual Average (KMHR) Record (KMHR)
Temperature  
Mean Temperature 40 °F -  
Max Temperature 46 °F 50 °F 66 °F (2013)
Min Temperature 35 °F 37 °F 28 °F (2003)
Degree Days  
Heating Degree Days 24    
Moisture  
Dew Point 37 °F    
Average Humidity 88    
Maximum Humidity 100    
Minimum Humidity 66    
Precipitation  
Precipitation 0.00 in - - ()
Sea Level Pressure  
Sea Level Pressure 30.17 in    
Wind  
Wind Speed 5 mph (ESE)    
Max Wind Speed 7 mph    
Max Gust Speed -    
Visibility 8 miles    
Events Rain    
Averages and records for this station are not official NWS values.
T = Trace of Precipitation, MM = Missing Value Source: NWS Daily Summary

Daily Weather History Graph

Daily Weather History Graph

Search for Another Location

Airport:

Trip Planner

Search our weather history database for the weather conditions in past years. The results will help you decide how hot, cold, wet, or windy it might be!

Date:

Astronomy

Dec. 28, 2012 Rise Set
Actual Time 7:22 AM PST 4:52 PM PST
Civil Twilight 6:53 AM PST 5:22 PM PST
Nautical Twilight 6:19 AM PST 5:55 PM PST
Astronomical Twilight 5:47 AM PST 6:27 PM PST
Moon 5:33 PM PST 7:21 AM PST
Length of Visible Light 10h 29m
Length of Day
9h 29m
Full, 100% of the Moon is Illuminated
Dec 28
Full
Jan 4
Last Quarter
Jan 11
New
Jan 18
First Quarter
Jan 26
Full

Hourly Weather History & Observations

Time (PST) Temp. Windchill Dew Point Humidity Pressure Visibility Wind Dir Wind Speed Gust Speed Precip Events Conditions
12:10 AM 37.4 °F 32.1 °F 35.6 °F 93% 30.19 in 7.0 mi SE 6.9 mph - N/A   Clear
12:30 AM 35.6 °F 30.7 °F 35.6 °F 100% 30.19 in 7.0 mi ESE 5.8 mph - N/A   Clear
12:50 AM 35.6 °F 30.7 °F 35.6 °F 100% 30.19 in 6.0 mi SE 5.8 mph - N/A Rain Light Rain
1:10 AM 35.6 °F 31.7 °F 35.6 °F 100% 30.20 in 7.0 mi SE 4.6 mph - N/A   Clear
1:30 AM 35.6 °F 30.7 °F 35.6 °F 100% 30.20 in 6.0 mi SE 5.8 mph - N/A Rain Light Rain
1:50 AM 35.6 °F 30.7 °F 35.6 °F 100% 30.21 in 8.0 mi SE 5.8 mph - N/A   Clear
2:10 AM 35.6 °F 29.9 °F 35.6 °F 100% 30.21 in 8.0 mi SE 6.9 mph - N/A Rain Light Rain
2:30 AM 35.6 °F 30.7 °F 35.6 °F 100% 30.22 in 7.0 mi SSE 5.8 mph - N/A   Clear
2:50 AM 35.6 °F 29.9 °F 35.6 °F 100% 30.21 in 7.0 mi SE 6.9 mph - N/A Rain Light Rain
3:10 AM 35.6 °F 29.9 °F 35.6 °F 100% 30.21 in 8.0 mi SE 6.9 mph - N/A Rain Light Rain
3:30 AM 35.6 °F 30.7 °F 33.8 °F 93% 30.21 in 10.0 mi SE 5.8 mph - N/A Rain Light Rain
3:50 AM 35.6 °F 30.7 °F 33.8 °F 93% 30.20 in 10.0 mi SE 5.8 mph - N/A   Clear
4:10 AM 35.6 °F 30.7 °F 33.8 °F 93% 30.20 in 10.0 mi SE 5.8 mph - N/A   Clear
4:30 AM 35.6 °F 30.7 °F 35.6 °F 100% 30.20 in 10.0 mi SE 5.8 mph - N/A   Clear
4:50 AM 37.4 °F 32.8 °F 33.8 °F 87% 30.19 in 10.0 mi SE 5.8 mph - N/A   Clear
5:10 AM 35.6 °F 31.7 °F 33.8 °F 93% 30.19 in 10.0 mi SSE 4.6 mph - N/A   Clear
5:30 AM 35.6 °F 31.7 °F 33.8 °F 93% 30.20 in 10.0 mi SSE 4.6 mph - N/A   Clear
5:50 AM 35.6 °F 31.7 °F 32.0 °F 87% 30.19 in 10.0 mi SE 4.6 mph - N/A   Clear
6:10 AM 35.6 °F 32.8 °F 33.8 °F 93% 30.20 in 10.0 mi SSE 3.5 mph - N/A   Clear
6:30 AM - - - N/A% 30.20 in 10.0 mi South 3.5 mph - N/A   Unknown
6:50 AM 35.6 °F 32.8 °F 32.0 °F 87% 30.21 in 10.0 mi South 3.5 mph - N/A   Clear
7:10 AM 35.6 °F 32.8 °F 32.0 °F 87% 30.21 in 10.0 mi SSE 3.5 mph - N/A   Clear
7:30 AM 35.6 °F 32.8 °F 32.0 °F 87% 30.21 in 10.0 mi SE 3.5 mph - N/A   Clear
7:50 AM 35.6 °F - 32.0 °F 87% 30.21 in 10.0 mi Calm Calm - N/A   Mostly Cloudy
8:10 AM 37.4 °F 33.8 °F 32.0 °F 81% 30.21 in 10.0 mi SE 4.6 mph - N/A   Overcast
8:30 AM 39.2 °F 35.9 °F 32.0 °F 75% 30.21 in 10.0 mi SE 4.6 mph - N/A   Overcast
8:50 AM 41.0 °F 38.0 °F 35.6 °F 81% 30.22 in 10.0 mi SE 4.6 mph - N/A   Overcast
9:10 AM 41.0 °F 38.0 °F 35.6 °F 81% 30.22 in 10.0 mi SE 4.6 mph - N/A   Overcast
9:30 AM 41.0 °F 37.1 °F 33.8 °F 76% 30.22 in 10.0 mi SE 5.8 mph - N/A   Mostly Cloudy
9:50 AM 41.0 °F 36.4 °F 32.0 °F 70% 30.22 in 10.0 mi ESE 6.9 mph - N/A   Scattered Clouds
10:10 AM 42.8 °F 39.3 °F 33.8 °F 70% 30.22 in 10.0 mi ESE 5.8 mph - N/A   Clear
10:30 AM 42.8 °F 40.1 °F 33.8 °F 70% 30.22 in 10.0 mi SSE 4.6 mph - N/A Rain Light Rain
10:50 AM 44.6 °F 43.1 °F 35.6 °F 71% 30.22 in 10.0 mi South 3.5 mph - N/A Rain Light Rain
11:10 AM 44.6 °F 43.1 °F 33.8 °F 66% 30.21 in 9.0 mi South 3.5 mph - N/A Rain Light Rain
11:30 AM 44.6 °F 43.1 °F 35.6 °F 71% 30.20 in 10.0 mi South 3.5 mph - N/A   Mostly Cloudy
11:50 AM 44.6 °F 41.4 °F 35.6 °F 71% 30.19 in 10.0 mi SSE 5.8 mph - N/A Rain Light Rain
12:10 PM 46.4 °F 43.5 °F 37.4 °F 71% 30.18 in 10.0 mi SSE 5.8 mph - N/A Rain Light Rain
12:30 PM - - - N/A% 30.17 in 10.0 mi South 5.8 mph - N/A Rain Light Rain
12:50 PM 46.4 °F 45.2 °F 37.4 °F 71% 30.17 in 10.0 mi SW 3.5 mph - N/A   Mostly Cloudy
1:10 PM 46.4 °F 44.3 °F 37.4 °F 71% 30.16 in 10.0 mi SW 4.6 mph - N/A Rain Light Rain
1:30 PM 44.6 °F - 39.2 °F 81% 30.16 in 9.0 mi Calm Calm - N/A   Partly Cloudy
1:50 PM 44.6 °F 41.4 °F 39.2 °F 81% 30.15 in 9.0 mi NNW 5.8 mph - N/A Rain Light Rain
2:10 PM 44.6 °F 42.2 °F 39.2 °F 81% 30.15 in 9.0 mi NNW 4.6 mph - N/A Rain Light Rain
2:30 PM 44.6 °F 42.2 °F 39.2 °F 81% 30.15 in 9.0 mi North 4.6 mph - N/A Rain Light Rain
2:50 PM 44.6 °F 42.2 °F 39.2 °F 81% 30.15 in 9.0 mi NNW 4.6 mph - N/A   Clear
3:10 PM 44.6 °F 40.7 °F 39.2 °F 81% 30.15 in 8.0 mi NW 6.9 mph - N/A   Partly Cloudy
3:30 PM 44.6 °F 41.4 °F 41.0 °F 87% 30.14 in 8.0 mi NNW 5.8 mph - N/A Rain Light Rain
3:50 PM 44.6 °F 41.4 °F 39.2 °F 81% 30.14 in 9.0 mi North 5.8 mph - N/A Rain Light Rain
4:10 PM 42.8 °F 39.3 °F 39.2 °F 87% 30.14 in 9.0 mi NNW 5.8 mph - N/A Rain Light Rain
4:30 PM 42.8 °F 40.1 °F 39.2 °F 87% 30.14 in 10.0 mi NNW 4.6 mph - N/A Rain Light Rain
4:50 PM 42.8 °F 40.1 °F 39.2 °F 87% 30.14 in 9.0 mi NNW 4.6 mph - N/A Rain Light Rain
5:10 PM 41.0 °F 38.0 °F 39.2 °F 93% 30.13 in 10.0 mi NNW 4.6 mph - N/A Rain Light Rain
5:30 PM 41.0 °F 37.1 °F 39.2 °F 93% 30.13 in 9.0 mi NNW 5.8 mph - N/A Rain Light Rain
5:50 PM 41.0 °F 36.4 °F 39.2 °F 93% 30.13 in 8.0 mi NNW 6.9 mph - N/A   Mostly Cloudy
6:10 PM 41.0 °F 38.0 °F 39.2 °F 93% 30.13 in 7.0 mi NNW 4.6 mph - N/A   Scattered Clouds
6:30 PM 41.0 °F 39.0 °F 39.2 °F 93% 30.12 in 7.0 mi North 3.5 mph - N/A   Mostly Cloudy
6:50 PM 41.0 °F 37.1 °F 39.2 °F 93% 30.11 in 7.0 mi NNE 5.8 mph - N/A Rain Light Rain
7:10 PM 41.0 °F 36.4 °F 39.2 °F 93% 30.12 in 7.0 mi West 6.9 mph - N/A Rain Light Rain
7:30 PM 41.0 °F 37.1 °F 39.2 °F 93% 30.11 in 5.0 mi NNW 5.8 mph - N/A   Overcast
7:50 PM 41.0 °F 39.0 °F 39.2 °F 93% 30.11 in 5.0 mi NNW 3.5 mph - N/A   Overcast
8:10 PM 41.0 °F 39.0 °F 39.2 °F 93% 30.11 in 5.0 mi NNW 3.5 mph - N/A   Mostly Cloudy
8:30 PM 41.0 °F 38.0 °F 39.2 °F 93% 30.11 in 5.0 mi NW 4.6 mph - N/A   Overcast
8:50 PM 41.0 °F 36.4 °F 39.2 °F 93% 30.11 in 5.0 mi NW 6.9 mph - N/A   Overcast
9:10 PM 41.0 °F 37.1 °F 39.2 °F 93% 30.11 in 5.0 mi NW 5.8 mph - N/A   Overcast
9:30 PM 41.0 °F 37.1 °F 39.2 °F 93% 30.11 in 4.0 mi NW 5.8 mph - N/A Rain Light Rain
9:50 PM 41.0 °F 37.1 °F 39.2 °F 93% 30.11 in 4.0 mi NNW 5.8 mph - N/A Rain Light Rain
10:10 PM 41.0 °F 37.1 °F 39.2 °F 93% 30.11 in 5.0 mi NNW 5.8 mph - N/A Rain Light Rain
10:30 PM 41.0 °F 37.1 °F 39.2 °F 93% 30.12 in 5.0 mi NNW 5.8 mph - N/A Rain Light Rain
10:50 PM 41.0 °F 37.1 °F 39.2 °F 93% 30.12 in 6.0 mi NNW 5.8 mph - N/A Rain Light Rain
11:10 PM 41.0 °F 38.0 °F 39.2 °F 93% 30.12 in 7.0 mi NNW 4.6 mph - N/A   Overcast
11:30 PM 41.0 °F 37.1 °F 39.2 °F 93% 30.11 in 9.0 mi NNW 5.8 mph - N/A   Overcast
11:50 PM 41.0 °F 36.4 °F 39.2 °F 93% 30.11 in 10.0 mi NNW 6.9 mph - N/A   Overcast